[[{"header":{"parameterUnit":"m.s-1","parameterCategory":1,"la1":30.2991,"la2":30.254,"lo1":-89.0895,"lo2":-89.0444,"dy":0.0017,"dx":0.0017,"nx":28,"ny":28,"refTime":"2024-07-07T03:00:00:Z","depth":0,"parameterNumber":2,"parameterNumberName":"U-component_of_WINDS"},"data":[0,0,0,0,0,0,0,0,0,0,0,0,0,0,0,0,0,0,0,0,0,0,0,0,0,0,0,0,0,0,0,0,0,0,0,0,0,0,0,0,0,0,0,0,0,0,0,0,0,0,0,0,0,0,0,0,0,0,-3.9733,-3.9733,0,-3.9786,-3.9786,-3.9787,-3.9758,-3.9757,-3.9755,-3.9754,-3.9807,-3.981,-3.9813,0,0,0,0,0,0,0,0,0,0,0,0,0,-3.9605,-3.9608,-3.9732,-3.9733,-3.9734,-3.9786,-3.9786,-3.9787,-3.9759,-3.9757,-3.9755,-3.9753,-3.9806,-3.9809,-3.9813,0,0,0,0,0,0,0,0,0,0,0,0,0,-3.966,-3.9609,-3.9732,-3.9726,-3.9726,-3.9786,-3.9786,-3.9787,-3.9759,-3.9757,-3.9755,-3.9753,-3.9805,-3.9809,-3.9813,-3.9882,0,0,-3.9826,-3.9828,0,0,0,0,0,0,0,0,-3.9657,-3.9664,-3.9726,-3.9726,-3.9726,-3.9763,-3.9761,-3.9819,-3.9759,-3.9746,-3.9754,-3.9751,-3.9794,-3.9799,-3.9814,-3.9885,-3.9887,-3.9826,-3.9829,-3.9831,-3.9832,0,0,0,0,0,0,0,-3.9653,-3.9662,-3.9753,-3.9727,-3.9727,-3.972,-3.9725,-3.9772,-3.9782,-3.9747,-3.9745,-3.9752,-3.9794,-3.981,-3.9815,-3.9888,-3.9826,-3.983,-3.9832,-3.9834,-4.0018,-4.002,0,0,0,0,0,0,-3.965,-3.9659,-3.9752,-3.9755,-3.9686,-3.9724,-3.973,-3.9754,-3.9781,-3.9783,-3.9754,-3.9751,-3.9804,-3.981,-3.9817,-3.9899,-3.983,-3.9834,-3.9837,-4.0015,-4.0018,-4.0021,0,0,0,0,0,0,-3.9647,-3.9658,-3.975,-3.9707,-3.9718,-3.9729,-3.9755,-3.9756,-3.9772,-3.9786,-3.9788,-3.9768,-3.9802,-3.9811,-3.9866,-3.99,-3.9836,-3.984,-4.0013,-4.0016,-4.002,-4.0063,0,0,0,0,0,0,-3.9644,-3.9657,-3.9684,-3.9707,-3.972,-3.9799,-3.9757,-3.9758,-3.9779,-3.9775,-3.98,-3.9802,-3.9801,-3.986,-3.987,-3.9905,-3.9843,-4.001,-4.0014,-4.0019,-4.0059,-4.0068,-4.0076,0,0,0,0,0,-3.9639,-3.9694,-3.9685,-3.9697,-3.9753,-3.9801,-3.9808,-3.9806,-3.9782,-3.9808,-3.9818,-3.9801,-3.9895,-3.9866,-3.9877,-3.9913,-4.0007,-4.0013,-4.0018,-4.0055,-4.0066,-4.0076,0,0,0,0,0,0,-3.9673,-3.9696,-3.9687,-3.9751,-3.9774,-3.9796,-3.9829,-3.9818,-3.9848,-3.9843,-3.9839,-3.9845,-3.9903,-3.9914,-3.9881,-3.9982,-3.9947,-3.9955,-3.9972,-3.9982,-3.9991,-3.9986,-3.9847,0,0,0,0,0,-3.9688,-3.9724,-3.9743,-3.9798,-3.981,-3.9818,-3.9838,-3.9835,-3.9858,-3.9868,-3.9881,-3.9904,-3.9939,-3.9962,-3.9994,-4.0061,-4.0066,-4.0092,-4.01,-4.0107,-4.0113,-4.0149,-4.0161,-4.0039,-4.0039,-4.0039,0,0,-3.9719,-3.9736,-3.9759,-3.9805,-3.9822,-3.986,-3.9826,-3.9867,-3.9895,-3.9874,-3.9927,-3.9938,-3.9963,-4.0025,-4.0053,-4.0036,-4.0148,-4.0114,-4.0119,-4.0122,-4.0156,-4.0168,-4.0178,-4.0042,-4.0042,-4.0041,0,0,-3.9794,-3.9811,-3.9859,-3.9877,-3.9904,-3.9909,-3.9921,-3.9945,-3.9951,-4.0005,-3.999,-4.0023,-4.0083,-4.0101,-4.0119,-4.0204,-4.0189,-4.0214,-4.0258,-4.0293,-4.0303,-4.0311,-4.034,-4.0351,-4.0221,-4.0221,-4.0221,0,-3.9829,-3.9885,-3.9884,-3.9927,-3.9947,-3.9931,-3.9979,-3.9997,-4.0033,-4.0047,-4.0029,-4.0104,-4.012,-4.0185,-4.0206,-4.0221,-4.0234,-4.021,-4.0301,-4.031,-4.0318,-4.0346,-4.0357,-4.0224,-4.0224,-4.0223,-4.0223,0,-3.9926,-3.9966,-4.0001,-4.0037,-4.0062,-4.0107,-4.0112,-4.0137,-4.0133,-4.014,-4.0195,-4.0214,-4.025,-4.0266,-4.0262,-4.0331,-4.032,-4.0302,-4.0267,-4.0332,-4.0358,-4.0369,-4.0228,-4.0227,-4.0226,-4.0225,0,0,-4.0022,-4.0058,-4.0071,-4.0087,-4.0117,-4.0148,-4.0192,-4.0229,-4.025,-4.0276,-4.0313,-4.0365,-4.0348,-4.0368,-4.0366,-4.0397,-4.0462,-4.0375,-4.0376,-4.039,-4.054,-4.0552,-4.0564,-4.0454,-4.0456,-4.0458,-4.0537,0,-4.0099,-4.0177,-4.0178,-4.025,-4.0286,-4.0272,-4.0311,-4.0333,-4.0342,-4.0374,-4.0383,-4.042,-4.0395,-4.0407,-4.0438,-4.0448,-4.0492,-4.0443,-4.0487,-4.0489,-4.048,-4.0578,-4.0592,-4.0665,-4.0547,-4.0549,-4.055,0,-4.0198,-4.0228,-4.0304,-4.0328,-4.0344,-4.0379,-4.0412,-4.0443,-4.0469,-4.0473,-4.0496,-4.0489,-4.0535,-4.0501,-4.0563,-4.0529,-4.0548,-4.0556,-4.0559,-4.0561,-4.0522,-4.0582,-4.0689,-4.0699,-4.0567,-4.0565,-4.0564,0,-4.0259,-4.0319,-4.0371,-4.0386,-4.0417,-4.0441,-4.0455,-4.0479,-4.0501,-4.053,-4.0544,-4.0579,-4.0597,-4.0624,-4.0627,-4.0602,-4.069,-4.0656,-4.0693,-4.0693,-4.0711,-4.0709,-4.082,-4.0726,-4.0726,-4.0725,-4.0725,0,-4.0344,-4.039,-4.0399,-4.0432,-4.0483,-4.0485,-4.0536,-4.0548,-4.0569,-4.0603,-4.0594,-4.0626,-4.0629,-4.0662,-4.0665,-4.0716,-4.0725,-4.0729,-4.0728,-4.0729,-4.0728,-4.0739,-4.0734,-4.0728,-4.0728,-4.0727,-4.0727,0,-4.042,-4.0428,-4.0485,-4.0509,-4.0517,-4.0554,-4.0575,-4.0606,-4.0614,-4.0658,-4.0668,-4.068,-4.0719,-4.0726,-4.0771,-4.0773,-4.0834,-4.0829,-4.0825,-4.0824,-4.0861,-4.0857,-4.0982,-4.0998,-4.0894,-4.0895,-4.0896,0,-4.0472,-4.0508,-4.0537,-4.0559,-4.0575,-4.0611,-4.0634,-4.0637,-4.066,-4.0693,-4.072,-4.0758,-4.0788,-4.0851,-4.0864,-4.0899,-4.0894,-4.0936,-4.0899,-4.0898,-4.0893,-4.0891,-4.0894,-4.0942,-4.0943,-4.0944,-4.0945,0,-4.0564,-4.0567,-4.06,-4.0635,-4.0662,-4.069,-4.0716,-4.0735,-4.0741,-4.0769,-4.0809,-4.0832,-4.0879,-4.0917,-4.0952,-4.0966,-4.0957,-4.0957,-4.0967,-4.0966,-4.0962,-4.0964,-4.0843,-4.0953,-4.0952,-4.0952,-4.0951,-4.0951,-4.063,-4.0661,-4.0686,-4.0723,-4.0743,-4.0768,-4.0798,-4.0811,-4.0844,-4.0883,-4.0883,-4.0927,-4.0952,-4.0998,-4.1014,-4.1048,-4.1035,-4.105,-4.1054,-4.1057,-4.106,-4.0958,-4.1055,-4.1055,-4.1054,-4.1054,-4.1054,0,-4.072,-4.0736,-4.0771,-4.0808,-4.0837,-4.0827,-4.0855,-4.0881,-4.0919,-4.0944,-4.0974,-4.102,-4.1057,-4.1074,-4.111,-4.1134,-4.1131,-4.1143,-4.1141,-4.1144,-4.1071,-4.1057,-4.1146,-4.1146,-4.1146,-4.1146,-4.1146,-4.1146,-4.0771,-4.0823,-4.0829,-4.089,-4.0906,-4.0949,-4.0966,-4.0989,-4.1008,-4.106,-4.1091,-4.1102,-4.1123,-4.1161,-4.1195,-4.1199,-4.1212,-4.1226,-4.1228,-4.1159,-4.1149,-4.114,-4.1128,-4.123,-4.123,-4.1299,-4.1299,-4.13]},{"header":{"parameterUnit":"m.s-1","parameterCategory":1,"la1":30.2991,"la2":30.254,"lo1":-89.0895,"lo2":-89.0444,"dy":0.0017,"dx":0.0017,"nx":28,"ny":28,"refTime":"2024-07-07T03:00:00:Z","depth":0,"parameterNumber":3,"parameterNumberName":"V-component_of_WINDS"},"data":[0,0,0,0,0,0,0,0,0,0,0,0,0,0,0,0,0,0,0,0,0,0,0,0,0,0,0,0,0,0,0,0,0,0,0,0,0,0,0,0,0,0,0,0,0,0,0,0,0,0,0,0,0,0,0,0,0,0,5.901,5.9011,0,5.9039,5.9039,5.904,5.9005,5.9004,5.9002,5.9001,5.9027,5.9029,5.903,0,0,0,0,0,0,0,0,0,0,0,0,0,5.8922,5.8924,5.901,5.9011,5.9011,5.9039,5.9039,5.904,5.9005,5.9003,5.9002,5.9,5.9026,5.9028,5.9031,0,0,0,0,0,0,0,0,0,0,0,0,0,5.8956,5.8924,5.901,5.8997,5.8996,5.9039,5.9039,5.904,5.9005,5.9003,5.9002,5.9,5.9025,5.9028,5.9031,5.9087,0,0,5.904,5.9041,0,0,0,0,0,0,0,0,5.8954,5.896,5.8999,5.8998,5.8997,5.9017,5.9018,5.9055,5.9006,5.9002,5.9001,5.8999,5.9025,5.9027,5.9037,5.9088,5.9089,5.904,5.9042,5.9043,5.9044,0,0,0,0,0,0,0,5.8952,5.8958,5.9022,5.8999,5.8998,5.8989,5.8991,5.9025,5.9023,5.9002,5.9,5.9004,5.9024,5.9034,5.9037,5.9089,5.904,5.9042,5.9044,5.9045,5.9187,5.9189,0,0,0,0,0,0,5.8952,5.8956,5.9021,5.9022,5.8971,5.8992,5.8995,5.9012,5.9023,5.9023,5.9005,5.9002,5.903,5.9034,5.9038,5.9103,5.9043,5.9045,5.9047,5.9185,5.9187,5.919,0,0,0,0,0,0,5.895,5.8958,5.9019,5.8989,5.8996,5.8995,5.9015,5.9014,5.9024,5.9026,5.9025,5.9016,5.9029,5.9034,5.9075,5.9104,5.9047,5.9049,5.9182,5.9186,5.9189,5.9235,0,0,0,0,0,0,5.8947,5.8957,5.8979,5.899,5.8998,5.9057,5.9017,5.9016,5.903,5.9025,5.9036,5.9036,5.9028,5.9071,5.9078,5.9107,5.9051,5.918,5.9184,5.9188,5.9231,5.9239,5.9246,0,0,0,0,0,5.8944,5.899,5.8981,5.8988,5.9025,5.9059,5.9063,5.9055,5.9032,5.9053,5.9054,5.9035,5.91,5.9076,5.9083,5.9113,5.9178,5.9183,5.9187,5.9227,5.9237,5.9246,0,0,0,0,0,0,5.8982,5.8991,5.8981,5.9031,5.9045,5.9053,5.9079,5.9066,5.9085,5.908,5.9067,5.907,5.9114,5.9117,5.909,5.9167,5.9135,5.9141,5.9163,5.9173,5.918,5.9178,5.9054,0,0,0,0,0,5.8996,5.9024,5.903,5.9075,5.9082,5.908,5.9094,5.9087,5.9099,5.9104,5.9108,5.912,5.9143,5.9158,5.918,5.9232,5.9233,5.9256,5.9264,5.927,5.9275,5.9302,5.9312,5.9205,5.9205,5.9205,0,0,5.9025,5.9034,5.9052,5.9082,5.9092,5.9119,5.9085,5.9115,5.9135,5.9108,5.9147,5.9151,5.9163,5.921,5.9231,5.9215,5.9306,5.9276,5.9281,5.9283,5.9308,5.9318,5.9327,5.9208,5.9208,5.9207,0,0,5.9093,5.9103,5.9141,5.9152,5.9167,5.9165,5.9174,5.9185,5.9187,5.9226,5.9206,5.923,5.927,5.9279,5.9289,5.9362,5.9344,5.9369,5.9409,5.9436,5.9444,5.9452,5.9476,5.9485,5.9375,5.9375,5.9375,0,5.9127,5.9169,5.9162,5.9194,5.9207,5.9186,5.9223,5.9234,5.9255,5.9264,5.9246,5.9296,5.9303,5.9351,5.9369,5.9378,5.9387,5.9367,5.9444,5.9451,5.9458,5.9481,5.9491,5.9378,5.9377,5.9377,5.9377,0,5.921,5.924,5.9268,5.929,5.9307,5.9342,5.9338,5.9356,5.9347,5.9347,5.9387,5.9395,5.9418,5.9429,5.942,5.9476,5.9465,5.9446,5.9413,5.9471,5.9493,5.9502,5.9382,5.9381,5.938,5.9379,0,0,5.93,5.9319,5.9329,5.9339,5.9355,5.9377,5.941,5.9434,5.9448,5.9464,5.9491,5.9526,5.9508,5.952,5.9512,5.9536,5.9592,5.9514,5.9514,5.9527,5.9652,5.9665,5.9676,5.9581,5.9583,5.9584,5.9651,0,5.9367,5.9426,5.9421,5.9476,5.9503,5.9484,5.9513,5.9525,5.9527,5.9548,5.9549,5.9574,5.955,5.9556,5.9579,5.958,5.9616,5.9575,5.9604,5.9605,5.96,5.9687,5.9701,5.9764,5.9659,5.9661,5.9662,0,5.9452,5.9472,5.9531,5.9543,5.9554,5.958,5.9601,5.9623,5.9636,5.9635,5.9649,5.9638,5.967,5.9638,5.9682,5.9655,5.9666,5.9669,5.9671,5.9672,5.9636,5.9689,5.9784,5.9792,5.9675,5.9674,5.9673,0,5.951,5.9552,5.9593,5.9602,5.9617,5.9636,5.9643,5.9655,5.9669,5.9687,5.9696,5.9717,5.9728,5.9745,5.9739,5.9716,5.9783,5.9751,5.9782,5.9782,5.9796,5.9795,5.9892,5.9806,5.9806,5.9806,5.9806,0,5.9584,5.9621,5.9619,5.9644,5.9684,5.9677,5.9716,5.9721,5.9731,5.9756,5.974,5.9763,5.9755,5.9777,5.9773,5.9809,5.9815,5.9814,5.9812,5.9814,5.9814,5.982,5.9815,5.9808,5.9808,5.9807,5.9807,0,5.9655,5.9656,5.9698,5.971,5.9714,5.9743,5.9752,5.9775,5.9776,5.9807,5.9813,5.9814,5.9839,5.9836,5.9864,5.9861,5.9906,5.9899,5.9901,5.9899,5.993,5.9927,6.0033,6.0046,5.9954,5.9955,5.9956,0,5.9702,5.973,5.9745,5.9761,5.977,5.9795,5.981,5.9805,5.9821,5.9839,5.9859,5.9883,5.9902,5.9943,5.9945,5.9967,5.9959,5.9996,5.9962,5.9964,5.9958,5.9956,5.9958,6.0001,6.0002,6.0003,6.0004,0,5.9784,5.9783,5.9806,5.9829,5.9848,5.9866,5.9881,5.9895,5.9891,5.9909,5.9936,5.9951,5.998,6.0004,6.0024,6.003,6.0016,6.0015,6.0023,6.0024,6.0024,6.0023,5.9917,6.0012,6.0011,6.001,6.001,6.001,5.9843,5.9866,5.9881,5.9907,5.9919,5.9934,5.9956,5.996,5.9983,6.0007,6.0002,6.0032,6.0044,6.007,6.0078,6.01,6.0087,6.0099,6.0102,6.0104,6.0107,6.0022,6.0104,6.0104,6.0104,6.0103,6.0103,0,5.9923,5.9932,5.9956,5.9979,6.0,5.9987,6.0004,6.0021,6.0048,6.0062,6.0081,6.0111,6.0134,6.0139,6.0161,6.0178,6.0172,6.0184,6.0181,6.0183,6.0119,6.0109,6.0188,6.0188,6.0188,6.0188,6.0188,6.0188,5.9967,6.0006,6.0007,6.0051,6.006,6.009,6.01,6.0114,6.0125,6.016,6.0179,6.0183,6.0192,6.0215,6.0236,6.0236,6.0244,6.0258,6.0256,6.0196,6.0187,6.0179,6.017,6.026,6.026,6.0318,6.0318,6.0319]}]]